Dewpoint
32 27 23 23 26 25 26 24 24 24 25 25 24 24 25 26 27 28 29 29 29 28 27 29 29 31 35 41 45 53 54 55 57 57 57 57 57 58 58 59 59 62 63 63
27 24 26 27 28 27 27 25 23 24 25 26 25 25 27 28 29 31 29 29 29 29 27 29 31 32 34 41 49 54 55 56 58 58 58 59 58 58 59 59 59 59 61 62
26 25 30 30 29 28 27 25 23 23 25 28 27 26 22 26 35 35 35 34 30 28 27 28 32 34 38 49 52 53 54 56 58 59 59 59 60 60 59 59 60 60 59 62
29 30 30 30 29 28 25 26 27 26 27 23 29 21 24 32 33 33 35 36 37 40 35 35 38 43 48 51 53 55 56 57 58 59 59 59 57 56 57 58 60 60 61 61
25 30 30 30 30 30 27 27 28 30 30 29 27 24 22 32 31 34 36 37 40 42 42 36 40 48 51 53 54 55 55 56 57 58 58 58 57 57 58 59 59 61 61 62
32 35 34 31 33 30 29 29 31 33 30 21 23 25 22 29 31 34 38 41 44 45 43 47 49 49 49 50 50 50 51 55 56 57 57 57 57 58 58 59 59 60 61 61
28 33 34 35 33 35 34 31 22 19 20 19 29 25 28 33 33 37 41 43 44 45 46 47 47 47 48 47 46 48 50 54 56 57 58 57 58 58 57 58 58 57 57 58
27 19 29 35 33 33 34 31 25 18 20 23 28 24 29 36 36 36 37 42 42 42 44 43 43 43 43 43 43 45 52 56 57 57 58 58 58 58 58 58 58 57 57 58
28 26 30 35 37 36 33 30 35 28 29 24 25 29 35 37 34 34 36 39 39 39 40 40 39 39 40 41 41 42 44 45 46 48 51 55 58 58 57 58 58 57 58 58
31 27 30 32 36 36 35 36 27 27 21 19 22 26 27 31 32 33 33 35 38 37 37 36 32 32 36 37 37 38 38 39 40 41 44 46 46 51 55 56 56 57 58 58
32 30 27 28 27 28 28 25 29 30 28 22 18 23 36 33 35 36 35 35 33 29 26 27 27 29 30 30 31 32 32 34 33 34 35 38 39 38 41 42 44 47 51 52
31 28 26 24 28 29 29 26 26 23 20 25 23 25 35 35 36 37 30 26 23 23 24 26 28 29 30 30 31 32 32 32 33 34 34 34 35 36 36 37 38 40 40 43
30 26 19 10 17 23 25 26 26 27 25 22 21 24 31 33 35 31 25 21 21 22 24 26 28 28 29 30 30 31 32 32 33 34 34 35 36 35 35 35 36 37 38 39
32 26 22 14 17 24 24 24 25 26 23 22 22 24 29 31 31 29 24 21 21 22 24 26 27 28 29 30 30 30 31 32 33 33 34 35 35 35 35 35 35 36 37 37
29 24 25 24 24 25 24 23 23 24 23 21 21 24 27 30 30 30 27 23 22 23 23 26 27 28 29 30 30 30 30 31 32 33 34 34 34 33 33 34 34 35 36 36
28 24 25 22 24 21 19 20 21 25 26 26 26 25 28 30 31 30 29 24 23 23 23 26 27 28 29 29 29 29 30 31 32 32 32 33 32 32 32 32 32 32 32 33
26 25 22 10 19 15 6 13 18 24 25 25 22 23 27 29 30 30 29 27 25 23 24 25 27 29 29 29 29 29 30 31 31 31 32 32 31 32 31 31 31 30 30 31
26 24 23 17 11 -21 1 23 22 22 24 27 27 26 27 28 30 31 31 30 26 23 24 26 28 29 29 29 29 30 30 30 30 29 29 30 30 30 29 29 29 29 29 29
28 24 20 11 11 5 4 16 21 18 12 22 26 28 29 30 28 29 25 25 24 23 25 28 29 29 29 29 29 29 28 28 28 28 27 28 29 28 28 27 28 28 28 28
26 25 21 17 5 -13 -6 18 25 20 1 12 25 28 29 29 25 24 23 22 24 25 27 28 29 29 29 27 28 27 27 27 27 28 27 27 27 27 26 27 27 27 28 28
24 23 20 18 13 9 12 23 22 -1 -10 19 27 29 29 28 26 20 22 24 25 25 27 30 29 26 27 28 27 27 27 27 28 28 28 27 27 26 26 26 26 26 26 26
16 17 17 19 16 2 22 24 13 8 19 27 29 30 30 28 24 23 23 23 24 25 27 28 26 26 27 28 27 26 25 28 28 28 28 26 26 25 25 25 26 26 25 24
15 16 13 17 11 15 25 20 23 23 25 26 28 30 30 29 25 22 23 23 24 25 25 27 25 25 26 27 27 26 27 27 28 27 27 26 26 25 25 25 24 25 24 24
21 22 20 20 18 20 21 23 26 26 26 28 29 30 30 28 25 23 22 22 23 24 24 25 25 25 25 26 27 27 27 27 27 27 27 26 25 25 25 24 24 25 24 24
20 22 21 22 21 21 21 22 23 24 28 28 29 30 29 28 25 23 22 21 22 23 24 25 25 26 26 27 26 27 27 27 27 27 26 24 24 24 24 24 25 25 25 26
25 23 21 18 20 19 20 21 24 25 26 28 29 28 28 27 25 22 20 21 23 23 24 25 26 27 27 27 26 27 27 27 27 26 24 24 24 24 24 24 24 25 26 26
Wind_Speed
4 5 5 3 5 3 4 8 14 21 18 10 21 29 34 33 21 26 27 25 25 22 22 19 22 21 19 17 16 15 13 17 13 12 12 14 16 16 15 16 17 17 19 22
3 5 6 5 5 7 7 13 18 19 6 5 22 31 32 27 21 18 21 19 23 19 16 18 21 22 20 21 16 14 15 15 16 15 11 10 8 13 16 15 19 22 24 25
4 5 3 4 8 10 13 16 17 16 10 16 18 14 2 3 7 10 16 13 15 19 23 20 18 20 19 18 16 13 15 15 15 15 12 11 11 12 17 21 21 24 30 30
6 2 2 7 11 10 10 9 19 21 10 9 6 14 3 12 8 14 21 19 20 19 17 18 16 14 16 18 10 13 12 10 14 14 14 13 14 17 20 24 22 22 26 26
4 4 4 9 8 11 11 6 7 13 14 11 3 7 6 14 13 26 24 20 18 15 12 13 11 10 3 4 4 4 8 9 11 10 10 11 14 17 22 21 18 17 17 22
13 0 5 6 4 15 13 14 15 8 3 5 3 7 4 17 20 25 15 10 16 5 4 7 14 13 15 11 11 11 9 12 12 12 10 12 11 13 14 16 14 12 14 16
6 4 4 6 5 5 7 6 6 4 3 5 4 5 5 21 22 20 15 12 13 15 17 21 21 16 15 19 20 21 12 9 11 11 10 11 5 4 14 10 12 11 6 11
7 5 4 7 6 2 2 1 2 5 4 7 4 11 6 13 17 20 22 20 20 24 18 23 22 16 19 20 28 20 16 11 8 6 9 8 3 3 9 10 10 13 10 10
5 6 4 9 4 3 1 3 2 4 5 3 4 3 3 19 20 21 22 22 21 26 22 22 18 22 23 26 19 22 22 20 24 18 18 6 6 6 8 7 4 4 3 2
3 8 4 3 4 5 3 4 4 2 6 6 6 5 14 21 22 17 19 20 19 17 17 19 20 19 17 15 15 16 20 24 22 22 21 18 22 17 13 10 8 5 3 5
2 2 7 4 1 3 4 4 3 3 1 3 7 6 12 14 12 15 15 11 10 11 12 11 13 14 13 13 18 19 22 20 21 18 15 21 19 18 18 18 17 17 13 16
3 2 8 3 5 4 2 5 2 2 3 1 2 4 6 4 8 10 7 6 7 9 10 10 12 13 15 15 16 18 19 21 20 16 17 18 17 18 20 18 17 16 18 15
3 3 8 4 4 3 2 4 3 4 1 3 2 4 0 3 4 3 3 4 7 10 12 14 14 15 15 15 16 16 18 19 17 17 17 17 18 18 18 18 18 18 18 17
4 3 4 4 6 3 9 15 6 1 3 2 6 3 5 4 5 5 2 3 6 7 9 9 12 13 14 13 13 15 15 14 15 16 18 18 19 18 16 15 16 17 16 17
1 5 5 11 15 7 10 12 6 3 5 3 4 8 9 12 13 11 7 4 2 4 8 10 11 12 12 13 14 13 13 15 13 11 13 15 14 13 14 14 14 13 13 13
4 4 5 9 0 5 14 15 11 7 3 5 3 8 9 8 8 9 10 7 4 4 6 6 8 11 14 17 19 17 15 15 14 19 19 17 16 17 16 16 17 17 17 16
5 7 8 6 9 13 9 9 14 7 7 6 11 9 8 10 13 13 11 9 6 4 3 4 5 6 9 10 11 12 13 12 9 8 7 9 11 12 13 12 11 13 14 15
4 3 1 8 14 4 2 2 2 10 11 16 9 9 9 12 11 9 8 9 9 6 4 2 3 5 6 7 10 11 8 5 5 8 10 11 11 11 13 12 13 13 13 16
6 2 3 4 6 12 1 4 6 6 8 16 25 17 6 5 2 9 10 8 8 7 3 1 0 2 3 6 8 4 4 5 7 10 11 12 11 12 15 16 17 17 17 19
4 2 3 1 4 5 3 3 5 4 8 3 16 18 15 11 8 9 11 11 9 5 2 2 3 3 5 5 4 2 5 8 13 11 10 11 12 14 17 18 19 19 20 21
4 3 11 10 7 12 9 5 6 2 3 4 7 16 20 16 11 4 12 8 5 4 6 5 6 5 3 2 2 4 3 10 8 11 11 14 15 16 15 17 17 17 19 20
10 9 8 5 6 9 10 7 7 3 2 3 7 13 21 11 8 10 12 11 10 9 9 8 6 3 1 2 5 14 18 14 12 16 17 20 19 18 19 21 23 23 21 20
7 10 4 14 10 5 16 9 14 5 4 4 4 11 17 16 14 14 13 12 11 10 7 5 2 0 3 9 11 12 12 14 17 20 21 20 18 18 18 18 19 18 18 18
7 8 8 3 8 22 23 22 19 13 16 9 9 11 14 16 16 15 12 12 10 8 6 5 2 6 9 10 10 9 12 12 13 14 15 14 15 16 16 15 15 16 17 20
8 10 8 14 26 24 23 20 20 18 18 16 11 13 19 17 14 15 13 12 11 8 6 3 3 5 8 10 10 8 8 8 11 12 12 13 14 15 16 17 16 17 18 20
16 16 14 17 12 13 17 7 5 6 11 20 21 15 15 20 18 14 12 10 9 6 2 4 7 7 8 8 9 8 5 6 8 12 14 14 14 14 16 17 21 18 22 27
Wind_Direction
26 18 313 267 221 238 278 268 276 271 273 283 273 270 280 288 284 276 267 255 256 253 250 244 253 257 261 258 248 250 241 241 213 209 220 231 234 243 244 237 233 224 216 205
351 304 260 222 228 237 251 276 278 286 282 233 279 281 283 283 279 286 293 261 255 260 260 250 250 252 251 253 232 239 241 241 218 213 218 222 218 239 243 236 236 233 229 215
253 246 161 205 272 270 253 246 259 255 297 270 279 281 286 326 322 351 351 318 282 265 264 260 249 248 244 234 220 231 244 245 240 224 224 235 245 250 259 257 251 237 228 218
264 235 259 258 260 224 286 238 248 264 290 310 20 300 331 345 304 339 328 319 303 289 257 256 260 253 221 216 211 219 236 229 230 217 223 232 253 267 266 262 246 232 224 208
267 229 244 277 258 172 241 247 251 275 269 298 253 254 284 354 329 327 322 311 305 279 265 253 245 252 211 44 338 284 268 263 241 218 214 237 260 267 271 243 221 198 196 210
256 316 243 228 258 213 253 292 284 279 278 272 256 224 303 352 324 317 314 347 345 22 76 70 71 56 46 21 1 328 291 255 232 221 227 234 257 284 314 200 184 187 197 198
316 219 225 208 274 221 228 296 335 334 336 271 253 201 286 344 340 340 7 1 27 48 61 57 41 37 38 20 4 338 280 266 207 211 219 209 238 23 46 68 102 98 83 107
339 345 202 179 217 267 249 204 288 298 314 301 16 333 330 6 351 356 13 27 39 36 46 52 38 36 40 27 16 352 30 153 132 31 182 164 163 88 89 84 80 75 61 58
334 290 286 207 186 190 275 298 267 276 249 316 321 305 263 351 7 13 20 34 39 37 30 38 34 40 33 33 2 19 32 53 54 39 33 15 150 98 87 91 87 74 57 71
303 300 279 304 174 234 228 306 338 330 340 330 337 352 347 351 350 4 26 28 39 42 36 34 27 32 32 20 10 21 40 42 40 40 34 33 33 30 39 39 35 28 322 299
269 206 292 318 351 346 347 359 282 280 219 329 333 337 347 346 354 14 33 44 34 45 40 29 25 31 28 21 19 23 32 38 37 37 39 44 29 26 36 34 28 19 14 13
189 222 282 304 322 324 223 359 343 315 2 70 117 307 224 288 320 350 22 44 43 44 41 36 30 29 28 24 23 26 28 29 22 25 37 36 35 24 29 24 19 15 14 15
178 214 319 339 340 356 20 325 329 258 229 230 209 238 287 265 305 42 123 71 32 28 27 27 33 34 30 25 24 24 26 24 21 22 31 35 36 29 20 16 11 10 7 1
176 217 216 249 255 254 303 319 0 142 282 206 234 232 216 213 238 229 226 23 24 22 23 22 22 24 28 25 23 25 25 20 18 24 28 27 24 19 13 9 8 5 359 358
304 274 230 263 259 250 260 277 313 281 239 257 330 216 234 214 217 222 220 219 270 0 16 18 12 14 17 17 18 20 24 24 20 29 32 27 19 11 6 4 359 355 357 354
9 293 324 297 158 278 277 258 251 248 229 245 201 257 226 215 202 217 222 217 251 346 351 351 8 12 12 15 10 6 7 11 17 21 16 8 6 3 360 357 353 353 350 343
356 342 344 282 327 310 285 264 206 204 216 198 216 231 183 195 210 221 223 222 233 241 290 344 5 10 11 10 355 352 351 348 5 1 350 357 2 358 353 346 348 343 336 332
276 326 270 288 335 317 225 215 209 239 253 219 240 225 221 221 210 217 209 214 217 225 252 302 23 11 6 352 336 324 322 336 353 0 4 360 359 348 345 346 347 336 335 333
204 184 284 291 285 288 332 191 193 196 283 228 229 231 231 167 146 261 214 198 202 207 215 191 155 328 320 304 298 300 354 13 8 10 5 357 349 348 348 350 344 338 333 330
111 134 219 313 297 262 225 194 177 150 292 293 217 213 187 156 221 252 189 183 191 195 172 195 232 262 270 307 298 2 15 18 14 356 348 349 350 355 352 347 339 337 338 331
212 213 227 225 255 280 242 187 144 196 251 306 217 197 176 194 207 171 164 181 179 191 197 196 204 214 229 271 185 33 34 15 355 357 350 353 357 350 345 335 330 327 324 320
198 186 211 176 227 280 161 124 200 242 297 286 203 195 194 201 170 171 184 190 193 195 191 191 197 210 322 354 21 18 14 354 353 359 353 349 344 342 340 337 331 329 323 311
246 210 210 202 225 239 194 215 214 189 241 277 231 209 204 202 206 197 202 199 194 192 194 190 185 275 23 26 25 6 352 357 356 351 346 336 326 325 322 317 310 306 309 307
240 205 236 302 259 252 244 249 251 238 237 225 227 216 199 210 206 204 198 194 191 192 196 199 212 24 14 16 12 1 350 349 341 327 318 314 311 310 312 310 313 310 314 314
224 169 228 257 278 279 272 252 255 259 241 236 223 213 218 210 210 200 200 198 195 191 190 174 55 22 5 4 353 339 340 344 328 316 309 312 313 313 315 316 317 316 310 315
209 229 220 242 244 255 278 285 275 272 263 248 228 219 210 202 205 193 196 190 185 186 155 28 17 2 347 338 325 324 340 345 323 314 320 315 315 316 320 321 319 314 315 321